Location: Battersea Observatory
(44.4318°N, 76.3841°W)
Time: 15:23:04
(UTC-05:00)

Courier 1B - Visible Passes

Search period start: 25 January 2022 00:00
Search period end: 04 February 2022 00:00
Orbit: 962 x 1209 km, 28.3° (Epoch: 25 January)

Date Brightness Start Highest point End Pass type
(mag) Time Alt. Az. Time Alt. Az. Time Alt. Az.
25 Jan 9.6 18:54:36 10° SSW 18:59:10 17° SSE 19:02:12 13° SE visible
25 Jan 9.7 20:46:23 10° SW 20:49:05 18° SSW 20:49:05 18° SSW visible
26 Jan 9.8 18:02:00 10° S 18:05:33 14° SSE 18:09:08 10° SE visible
26 Jan 9.3 19:52:52 10° SW 19:58:36 22° S 19:58:42 22° S visible
27 Jan 9.5 18:59:30 10° SSW 19:04:56 21° SSE 19:08:19 16° SE visible
27 Jan 9.7 20:52:14 10° SW 20:55:13 19° SSW 20:55:13 19° SSW visible
28 Jan 9.7 18:06:22 10° SSW 18:11:17 18° SSE 18:16:17 10° SE visible
28 Jan 9.3 19:58:32 10° SW 20:04:26 24° S 20:04:49 24° S visible
29 Jan 9.4 19:04:59 10° SW 19:10:45 23° S 19:14:26 17° SE visible
29 Jan 9.8 20:58:25 10° SW 21:01:20 18° SW 21:01:20 18° SW visible
30 Jan 9.5 18:11:36 10° SW 18:17:05 22° S 18:22:41 10° SE visible
30 Jan 9.4 20:04:34 10° SW 20:10:16 23° S 20:10:58 22° S visible
31 Jan 9.4 19:10:51 10° SW 19:16:35 23° S 19:20:37 16° SE visible
31 Jan 9.9 21:05:05 10° SW 21:07:31 15° SW 21:07:31 15° SW visible
01 Feb 9.5 18:17:18 10° SW 18:22:55 23° S 18:28:43 10° SE visible
01 Feb 9.6 20:10:58 10° SW 20:16:05 19° SSW 20:17:13 19° S visible
02 Feb 9.6 19:17:04 10° SW 19:22:26 21° S 19:26:56 13° SSE visible
02 Feb 10.2 21:12:54 10° SW 21:13:50 11° SW 21:13:50 11° SW visible
03 Feb 9.6 18:23:21 10° SW 18:28:47 22° S 18:34:23 10° SE visible
03 Feb 9.9 20:18:01 10° SW 20:21:51 14° SSW 20:23:37 13° S visible
